[[{"header":{"parameterUnit":"m.s-1","parameterCategory":1,"la1":30.2992,"la2":30.254,"lo1":-89.0895,"lo2":-89.0443,"dy":0.0025,"dx":0.0025,"nx":19,"ny":19,"refTime":"2026-04-02T21:00:00:Z","depth":0,"parameterNumber":2,"parameterNumberName":"U-component_of_WINDS"},"data":[0,0,0,-5.2151,-5.2153,-5.2267,-5.2267,-5.242,-5.2421,0,0,0,0,0,0,0,0,0,0,0,-5.2122,-5.2123,-5.2151,-5.2154,-5.2267,-5.2267,-5.242,-5.2421,0,0,0,0,0,0,0,0,0,0,0,-5.2122,-5.2123,-5.2125,-5.2154,-5.2267,-5.2268,-5.2419,-5.2331,0,0,0,0,0,0,0,0,0,0,-5.2219,-5.2198,-5.2123,-5.2125,-5.2155,-5.2267,-5.2268,-5.2326,-5.2336,-5.2372,0,-5.2405,0,-5.2416,-5.2432,-5.2433,0,0,0,-5.215,-5.219,-5.2216,-5.2125,-5.2156,-5.2267,-5.2215,-5.2332,-5.2343,-5.2385,-5.2407,-5.2412,-5.2418,-5.2433,-5.2434,-5.2651,-5.2652,0,0,-5.2144,-5.2145,-5.2208,-5.2223,-5.2207,-5.2211,-5.2218,-5.2339,-5.2363,-5.2407,-5.2416,-5.2421,-5.2434,-5.2435,-5.265,-5.2651,0,0,0,-5.2128,-5.2141,-5.2164,-5.2217,-5.2237,-5.2215,-5.2223,-5.2357,-5.2365,-5.2417,-5.2422,-5.2435,-5.2437,-5.2648,-5.265,-5.2709,0,0,0,-5.2124,-5.2132,-5.2161,-5.2164,-5.2235,-5.2299,-5.2239,-5.2356,-5.237,-5.2422,-5.2435,-5.2439,-5.2647,-5.2649,-5.2705,-5.2736,0,0,0,-5.2113,-5.213,-5.2149,-5.2163,-5.2212,-5.2297,-5.2311,-5.2359,-5.2373,-5.2433,-5.2439,-5.2646,-5.2649,-5.2701,-5.273,-5.2793,0,0,0,-5.2101,-5.22,-5.215,-5.2262,-5.2211,-5.2333,-5.231,-5.2401,-5.2459,-5.2436,-5.2647,-5.265,-5.27,-5.2726,-5.2788,-5.2844,-5.2868,0,0,-5.2227,-5.2215,-5.2281,-5.2239,-5.2371,-5.2316,-5.2456,-5.2508,-5.2512,-5.2604,-5.2609,-5.2706,-5.273,-5.2792,-5.3006,-5.3025,0,0,0,-5.2321,-5.2369,-5.2403,-5.2459,-5.2501,-5.254,-5.257,-5.259,-5.2668,-5.256,-5.2747,-5.2761,-5.2797,-5.2824,-5.284,-5.287,-5.2663,-5.2663,-5.2662,-5.25,-5.25,-5.2609,-5.2623,-5.2678,-5.2708,-5.2752,-5.2783,-5.2768,-5.2812,-5.2839,-5.2969,-5.3,-5.3012,-5.3044,-5.287,-5.2871,-5.2871,-5.2871,-5.2682,-5.2748,-5.2726,-5.2823,-5.2823,-5.2905,-5.2938,-5.2925,-5.3,-5.2949,-5.2981,-5.2923,-5.3033,-5.3061,-5.2875,-5.2875,-5.2874,-5.2874,-5.2873,-5.2796,-5.2828,-5.2851,-5.2931,-5.2993,-5.3004,-5.3078,-5.3075,-5.3074,-5.3106,-5.3133,-5.3132,-5.3129,-5.3119,-5.312,-5.312,-5.3121,-5.3121,-5.3121,-5.2906,-5.2929,-5.2991,-5.3045,-5.308,-5.3126,-5.3159,-5.3193,-5.3231,-5.3223,-5.3223,-5.3203,-5.3045,-5.3003,-5.3128,-5.3127,-5.3126,-5.3125,-5.3125,-5.3087,-5.3046,-5.3142,-5.3177,-5.3239,-5.33,-5.3297,-5.3368,-5.3396,-5.3432,-5.3405,-5.329,-5.3277,-5.3264,-5.323,-5.3406,-5.3406,-5.3406,-5.3406,-5.3182,-5.3176,-5.3273,-5.333,-5.3385,-5.3392,-5.35,-5.3526,-5.3546,-5.3564,-5.3539,-5.3494,-5.3481,-5.3477,-5.3459,-5.3427,-5.3649,-5.3649,-5.365,-5.3293,-5.3292,-5.3384,-5.3404,-5.3452,-5.3494,-5.3595,-5.366,-5.3675,-5.3659,-5.3577,-5.3567,-5.3495,-5.3472,-5.3452,-5.3425,-5.3366,0,0]},{"header":{"parameterUnit":"m.s-1","parameterCategory":1,"la1":30.2992,"la2":30.254,"lo1":-89.0895,"lo2":-89.0443,"dy":0.0025,"dx":0.0025,"nx":19,"ny":19,"refTime":"2026-04-02T21:00:00:Z","depth":0,"parameterNumber":3,"parameterNumberName":"V-component_of_WINDS"},"data":[0,0,0,4.3931,4.3933,4.4005,4.4005,4.4097,4.4097,0,0,0,0,0,0,0,0,0,0,0,4.391,4.3911,4.3931,4.3933,4.4005,4.4005,4.4096,4.4097,0,0,0,0,0,0,0,0,0,0,0,4.391,4.3911,4.3911,4.3933,4.4005,4.4005,4.4096,4.4042,0,0,0,0,0,0,0,0,0,0,4.3972,4.3953,4.391,4.3911,4.3933,4.4005,4.4005,4.4039,4.4045,4.4064,0,4.4081,0,4.4091,4.4103,4.4104,0,0,0,4.3932,4.3948,4.3967,4.3911,4.3934,4.4005,4.3972,4.4043,4.4049,4.4072,4.4083,4.4086,4.4092,4.4104,4.4105,4.4217,4.4218,0,0,4.3928,4.3923,4.3963,4.3972,4.3962,4.397,4.3974,4.4047,4.4058,4.4083,4.4088,4.4094,4.4105,4.4105,4.4217,4.4217,0,0,0,4.3917,4.392,4.3938,4.3968,4.3981,4.3972,4.3977,4.4054,4.4061,4.4089,4.4095,4.4105,4.4106,4.4216,4.4217,4.4241,0,0,0,4.3915,4.3914,4.3936,4.3933,4.398,4.4019,4.3983,4.4056,4.4064,4.4095,4.4105,4.4107,4.4215,4.4216,4.4239,4.4253,0,0,0,4.3905,4.3913,4.3923,4.3933,4.3964,4.4018,4.4028,4.4058,4.4068,4.4104,4.4107,4.4215,4.4216,4.4237,4.425,4.4282,0,0,0,4.3893,4.3942,4.3924,4.3981,4.3964,4.4032,4.4028,4.4079,4.4113,4.4106,4.4215,4.4217,4.4237,4.4248,4.428,4.4309,4.4321,0,0,4.3952,4.3949,4.3983,4.3969,4.404,4.4022,4.4096,4.4131,4.4138,4.419,4.4193,4.424,4.425,4.4282,4.4384,4.4393,0,0,0,4.4,4.4025,4.4045,4.4078,4.4107,4.4133,4.4157,4.417,4.4215,4.4164,4.4259,4.4266,4.4285,4.4299,4.4306,4.4323,4.4223,4.4223,4.4223,4.4077,4.4085,4.4142,4.4159,4.4191,4.4216,4.4242,4.4264,4.4261,4.4284,4.43,4.4361,4.4377,4.4383,4.44,4.4315,4.4315,4.4315,4.4315,4.4165,4.4202,4.4198,4.4253,4.4261,4.4306,4.4332,4.4329,4.4372,4.4349,4.4366,4.4342,4.4393,4.4408,4.4317,4.4316,4.4316,4.4316,4.4316,4.4217,4.4236,4.4252,4.4301,4.4338,4.4352,4.4395,4.44,4.4404,4.4421,4.4439,4.4438,4.444,4.4429,4.4429,4.4429,4.443,4.443,4.443,4.4265,4.4283,4.4318,4.4354,4.4376,4.4406,4.4432,4.4454,4.4479,4.4479,4.4479,4.4475,4.4396,4.4377,4.4433,4.4433,4.4432,4.4432,4.4432,4.4354,4.4335,4.439,4.4413,4.4455,4.4492,4.4497,4.4541,4.456,4.458,4.4572,4.4513,4.451,4.4504,4.4488,4.457,4.457,4.457,4.457,4.4399,4.4398,4.4456,4.4492,4.4528,4.4539,4.46,4.4621,4.4639,4.4651,4.4639,4.4618,4.4612,4.4612,4.4604,4.4589,4.4695,4.4695,4.4696,4.4455,4.4458,4.451,4.4529,4.4562,4.4591,4.4649,4.469,4.4706,4.4701,4.466,4.4655,4.4621,4.4609,4.4604,4.4591,4.4564,0,0]}]]